This is the latest recevied weather packets stored in our database for station/object SP9TKN-1. If no packets are shown the sender has not sent any weather packets the latest 10 day(s).
| Time | Temp. | Humidity | Pressure | Rain* | Wind** | Luminosity | Snow |
|---|---|---|---|---|---|---|---|
| 1777705265 | 12.78° C | 49% | 1026 hPa | - | - | - | - |
| 1777704364 | 12.22° C | 50% | 1026 hPa | - | - | - | - |
| 1777702564 | 11.11° C | 56% | 1026.1 hPa | - | - | - | - |
| 1777701664 | 10.56° C | 59% | 1026.2 hPa | - | - | - | - |
| 1777700764 | 10° C | 60% | 1026.1 hPa | - | - | - | - |
| 1777699864 | 9.44° C | 61% | 1026.2 hPa | - | - | - | - |
| 1777698964 | 8.89° C | 62% | 1026.2 hPa | - | - | - | - |
| 1777698064 | 8.89° C | 63% | 1026.2 hPa | - | - | - | - |
| 1777697164 | 8.33° C | 63% | 1026.1 hPa | - | - | - | - |
| 1777696264 | 8.33° C | 63% | 1026 hPa | - | - | - | - |
| 1777695364 | 8.33° C | 63% | 1026 hPa | - | - | - | - |
| 1777694464 | 8.33° C | 63% | 1025.9 hPa | - | - | - | - |
| 1777693564 | 8.33° C | 63% | 1025.8 hPa | - | - | - | - |
| 1777692663 | 8.33° C | 62% | 1025.8 hPa | - | - | - | - |
| 1777691763 | 8.89° C | 61% | 1025.7 hPa | - | - | - | - |
| 1777690863 | 8.89° C | 61% | 1025.7 hPa | - | - | - | - |
| 1777689963 | 8.89° C | 61% | 1025.7 hPa | - | - | - | - |
| 1777689063 | 9.44° C | 61% | 1025.8 hPa | - | - | - | - |
| 1777688163 | 9.44° C | 61% | 1025.7 hPa | - | - | - | - |
| 1777687265 | 9.44° C | 61% | 1025.7 hPa | - | - | - | - |
| 1777686365 | 9.44° C | 60% | 1025.6 hPa | - | - | - | - |
| 1777685465 | 10° C | 59% | 1025.8 hPa | - | - | - | - |
| 1777684565 | 10° C | 59% | 1025.7 hPa | - | - | - | - |
| 1777683665 | 10° C | 58% | 1025.7 hPa | - | - | - | - |
| 1777682765 | 10.56° C | 58% | 1025.8 hPa | - | - | - | - |
* Rain since midnight (hover to see other rain measurements)
** Current wind speed in m/s (hover to see current wind gust speed)